Location: D�rnast
(49.6426°N, 11.9755°E)
Time: 12:36:11
(UTC+00:00)

SL-14 R/B - Pass Details

Date: 24 January 2021
Orbit: 520 x 553 km, 82.4° (Epoch: 26 February)

Event Time Altitude Azimuth Distance (km) Brightness Sun altitude
Rises 16:24:58 0° 195° (SSW) 2,649 7.4 -5.3°
Reaches altitude 10° 16:27:05 10° 198° (SSW) 1,770 6.5 -5.6°
Maximum altitude 16:30:57 68° 281° (W) 578 3.7 -6.2°
Drops below altitude 10° 16:34:55 10° 6° (N) 1,805 5.7 -6.8°
Sets 16:37:06 0° 9° (N) 2,707 6.6 -7.1°
